Powrót do katalogu

THORAD AGENA D DEB

AktywnyLEO
NORAD 4993·DEBRIS·🇺🇸 United States

Wystrzelony Apr 8, 1970 z Vandenberg Space Force Base

Loading…

Następne Przeloty (najbliższe 24 godziny)

TLE

ŚwieżeSource: Space-Track

Epoka: Sep 14, 2026, 21:52 UTC

1 04993U 70025HP  26257.91179964  .00000394  00000-0  28388-3 0  9995
2 04993 100.2120  56.9825 0083283 113.9860 247.0049 14.02137427851304

Śledź THORAD AGENA D DEB w czasie rzeczywistym z AllMySat

Download on the App Store